Location: Austin
(30.3000°N, 97.7500°W)
Time: 03:01:40
(UTC-05:00)

Cosmos 1933 Rocket - Pass Details

Date: 18 March 2023
Orbit: 605 x 629 km, 82.5° (Epoch: 01 April)

Event Time Altitude Azimuth Distance (km) Brightness Sun altitude
Rises 20:34:03 0° 165° (SSE) 2,852 6.7 -12.2°
Reaches altitude 10° 20:36:24 10° 156° (SSE) 1,950 5.8 -12.7°
Maximum altitude 20:40:17 34° 91° (E) 1,012 4.1 -13.6°
Drops below altitude 10° 20:44:10 10° 27° (NNE) 1,955 5.9 -14.4°
Sets 20:46:32 0° 18° (NNE) 2,862 6.9 -14.9°
